DELTA 1 DEB, 19306

Orbit data source: Space-Track

DELTA 1 DEB, 19306 is space debris in SSO originally from a launch on Thu, 29 Jul 1976 UTC launched from the Air Force Western Test Range (AFWTR). Debris objects in space refer to the collection of defunct objects orbiting the Earth. Examples of debris include non-operational satellites, rocket bodies, and fragments generated from explosions, collisions, or faulty payload assembly.

Loading next visibility...
Identifier
19306, 1976-077FJ
Orbit
SSO
Country
Flag of USUS
Related business
Manufacturer
Unknown
Mission
Spacecraft
Bus & Motor
Unknown
Mass
Unknown
Launch date (UTC)
1976-07-29 (50 years ago)
Launch vehicle
Unknown
Launch site
Air Force Western Test Range (AFWTR)
Object type
Payload
Rocket body
Debris
Shape & HBR
Unknown shape, 0.1 m
Radar Cross Section
Small (<0.1 m²)

Expand to show TLE details & history
Last TLE update: 2 days ago

TLE from 2 days ago
0 DELTA 1 DEB
1 19306U 76077FJ  26126.25829859  .00000009  00000-0  50550-3 0  9998
2 19306 102.2180 233.5235 0145581 125.1193 264.6895 12.15451402670158
Epoch: 2026-05-06T06:11Z
TLE epoch observation values (Epoch: 2026-05-06T06:11:56.998Z)
Latitude
27.49729°
Longitude
-90.02553°
Altitude
1,627.879 km
Speed
7.054 km/s
True Right ascension
15h 08m 19s
True Declination
27° 22' 19"
Sunlit
Object was in full shadow at epoch
Visualization orbit readout
Latitude
Unknown
Longitude
Unknown
Altitude
Unknown
Speed
Unknown
Apparent Right ascension
Unknown
Apparent Declination
Unknown
Sunlit
N/A
Visualization observer readout
Local Sidereal Time
13:25:47
Azimuth
Unknown
Elevation
Unknown
Doppler factor
Unknown
Orbital elements
Apogee altitude
1,726.327 km
Perigee altitude
1,493.741 km
Semi-major axis
7,988.171 km
Eccentricity
0.01456
Inclination
102.218°
RAAN
233.5235°
Arg. of periapsis
125.1193°
True anomaly
263.03145°
Mean anomaly
264.6895°
Eccentric anomaly
263.86017°
Mean motion
3.03999 °/min
Orbital period
118.42 mins
BSTAR
0.0005055
Loading maneuver chart data...
Computing Atmospheric mass density...
Loading historical data...
Loading historical data...
Loading historical data...
Loading historical data...
Loading historical data...
Loading historical data...
Loading historical data...

Documentation

Showing up to 5 results
|